Date,TemperatureHighF,TemperatureAvgF,TemperatureLowF,DewpointHighF,DewpointAvgF,DewpointLowF,HumidityHigh,HumidityAvg,HumidityLow,PressureMaxIn,PressureMinIn,WindSpeedMaxMPH,WindSpeedAvgMPH,GustSpeedMaxMPH,PrecipitationSumIn
2013-4-1,58.5,42.5,28.3,36.6,28.5,19.8,74,58,43,30.15,30.04,11,3,11,0.00
2013-4-2,44.1,39.5,37.1,36.0,32.9,29.8,88,77,66,30.13,30.07,10,2,10,0.21
2013-4-3,63.9,47.7,34.6,46.5,36.6,31.2,91,69,39,30.14,30.04,10,2,10,0.00
2013-4-4,74.7,55.4,36.2,43.0,34.3,28.8,79,48,24,30.16,30.00,8,2,8,0.00
2013-4-5,79.6,58.3,44.8,42.8,33.4,25.0,62,42,16,30.00,29.75,17,3,17,0.00
2013-4-6,68.6,53.1,36.7,33.7,28.9,22.8,63,41,23,29.98,29.88,14,2,14,0.00
2013-4-7,70.6,54.7,39.2,40.1,31.9,27.0,74,45,22,29.90,29.74,14,2,14,0.00
2013-4-8,67.9,46.7,28.4,39.5,31.4,21.8,77,57,31,29.86,29.50,29,5,29,0.03
2013-4-9,28.4,21.9,14.8,21.8,14.2,7.5,79,72,65,30.17,29.85,20,8,20,0.11
2013-4-10,32.8,21.2,9.2,20.5,12.5,3.4,80,69,57,30.14,29.90,8,2,8,0.00
2013-4-11,59.4,37.1,17.8,38.4,26.0,12.2,80,66,43,29.94,29.77,12,3,12,0.00
2013-4-12,60.7,45.6,34.6,38.8,32.0,26.7,76,60,40,30.00,29.90,24,4,24,0.00
2013-4-13,68.0,48.3,30.4,41.2,31.3,24.8,86,57,23,29.98,29.48,17,2,17,0.09
2013-4-14,52.2,43.4,36.4,38.3,18.8,5.2,83,41,17,29.78,29.59,20,5,20,0.16
2013-4-15,37.6,30.3,24.5,26.6,22.1,17.4,82,72,44,30.03,29.77,13,3,13,0.90
2013-4-16,35.1,29.2,24.5,28.7,24.6,19.8,88,83,77,30.03,29.88,12,2,12,0.05
2013-4-17,34.0,28.9,20.2,29.4,24.4,14.9,89,83,77,30.14,29.95,20,5,20,0.22
2013-4-18,40.7,27.4,12.4,26.3,17.9,8.5,87,69,50,30.13,30.07,8,2,8,0.00
2013-4-19,57.4,38.5,20.3,34.4,24.5,14.4,80,59,39,30.11,29.95,10,2,10,0.00
2013-4-20,60.1,46.1,31.3,39.7,32.3,24.7,80,60,41,30.03,29.92,8,2,8,0.00
2013-4-21,68.8,49.5,31.7,42.8,32.8,25.3,85,57,24,30.08,29.98,17,2,17,0.00
2013-4-22,47.9,35.5,24.5,39.1,27.7,20.1,84,74,52,30.29,29.92,26,5,26,0.33
2013-4-23,39.2,29.1,20.5,25.8,20.5,16.1,85,71,51,30.25,30.12,8,2,8,0.23
2013-4-24,58.0,39.5,21.1,35.1,23.9,15.2,80,57,31,30.19,30.11,9,2,9,0.00
2013-4-25,68.0,47.3,28.8,35.5,27.4,19.5,71,49,27,30.15,29.93,10,2,10,0.00
2013-4-26,73.1,54.6,36.0,35.6,29.2,24.9,67,43,18,30.19,30.02,12,2,12,0.00
2013-4-27,79.2,69.3,52.2,32.0,26.0,21.6,33,21,15,30.12,30.04,8,2,8,0.00
2013-4-28,81.7,64.1,41.9,37.8,29.9,21.9,55,31,16,30.05,29.88,11,2,11,0.00
2013-4-29,83.7,67.7,47.9,43.6,31.7,18.5,57,30,13,29.97,29.66,17,3,17,0.00
2013-4-30,65.9,52.8,36.5,40.9,33.9,25.5,85,51,24,30.05,29.68,19,4,19,0.23